| time (UTC) | temp F | wind direction | speed MPH | gust MPH | rain 1hr in | rain 24hr in | rain mn in | humidity % | barometer mb |
| 20260510184539 | 85 | 110 | 3.0 | 11.0 | 0.00 | 0.00 | 0.00 | 62 | 1011.8 |
| 20260510183031 | 85 | 86 | 1.0 | 10.0 | 0.00 | 0.00 | 0.00 | 64 | 1012.0 |
| 20260510181527 | 84 | 96 | 3.0 | 11.0 | 0.00 | 0.00 | 0.00 | 64 | 1012.2 |
| 20260510180022 | 84 | 177 | 3.0 | 10.0 | 0.00 | 0.00 | 0.00 | 64 | 1012.5 |
| 20260510174517 | 84 | 185 | 4.0 | 9.0 | 0.00 | 0.00 | 0.00 | 65 | 1012.8 |
| 20260510173012 | 83 | 183 | 2.0 | 10.0 | 0.00 | 0.00 | 0.00 | 65 | 1013.0 |
| 20260510171508 | 83 | 169 | 2.0 | 11.0 | 0.00 | 0.00 | 0.00 | 66 | 1013.1 |
| 20260510170003 | 82 | 182 | 2.0 | 10.0 | 0.00 | 0.00 | 0.00 | 66 | 1013.3 |
| 20260510164604 | 81 | 188 | 6.0 | 12.0 | 0.00 | 0.00 | 0.00 | 66 | 1013.5 |
| 20260510163107 | 81 | 140 | 6.0 | 12.0 | 0.00 | 0.00 | 0.00 | 66 | 1013.5 |
| 20260510161550 | 81 | 184 | 5.0 | 11.0 | 0.00 | 0.00 | 0.00 | 65 | 1013.4 |
| 20260510160047 | 82 | 225 | 1.0 | 8.0 | 0.00 | 0.00 | 0.00 | 64 | 1013.2 |
| 20260510154543 | 81 | 194 | 4.0 | 8.0 | 0.00 | 0.00 | 0.00 | 64 | 1013.2 |
| 20260510153041 | 0 | 0.0 | 0.0 | 0.00 | 0.00 | 0.00 | 1013.2 | ||
| 20260510151535 | 0 | 0.0 | 0.0 | 0.00 | 0.00 | 0.00 | 1013.2 | ||
| 20260510150030 | 0 | 0.0 | 0.0 | 0.00 | 0.00 | 0.00 | 1013.2 | ||
| 20260510144525 | 0 | 0.0 | 0.0 | 0.00 | 0.00 | 0.00 | 1012.9 | ||
| 20260510143020 | 0 | 0.0 | 0.0 | 0.00 | 0.00 | 0.00 | 1012.9 | ||
| 20260510141516 | 0 | 0.0 | 0.0 | 0.00 | 0.00 | 0.00 | 1012.6 | ||
| 20260510140011 | 0 | 0.0 | 0.0 | 0.00 | 0.00 | 0.00 | 1012.5 | ||
| 20260510134507 | 0 | 0.0 | 0.0 | 0.00 | 0.00 | 0.00 | 1012.3 | ||
| 20260510133004 | 0 | 0.0 | 0.0 | 0.00 | 0.00 | 0.00 | 1012.0 | ||
| 20260510131558 | 0 | 0.0 | 0.0 | 0.00 | 0.00 | 0.00 | 1011.8 | ||
| 20260510130054 | 0 | 0.0 | 0.0 | 0.00 | 0.00 | 0.00 | 1011.4 | ||
| 20260510124551 | 0 | 0.0 | 0.0 | 0.00 | 0.00 | 0.00 | 1011.3 | ||
| 20260510123045 | 0 | 0.0 | 0.0 | 0.00 | 0.00 | 0.00 | 1011.2 | ||
| 20260510121541 | 0 | 0.0 | 0.0 | 0.00 | 0.00 | 0.00 | 1011.0 | ||
| 20260510120037 | 0 | 0.0 | 0.0 | 0.00 | 0.00 | 0.00 | 1010.8 | ||
| 20260510114532 | 68 | 221 | 0.0 | 0.0 | 0.00 | 0.00 | 0.00 | 5 | 1010.6 |
| 20260510113036 | 68 | 221 | 0.0 | 0.0 | 0.00 | 0.00 | 0.00 | 5 | 1010.7 |
| 20260510111523 | 68 | 221 | 0.0 | 0.0 | 0.00 | 0.00 | 0.00 | 6 | 1010.5 |
| 20260510110037 | 68 | 221 | 0.0 | 0.0 | 0.00 | 0.00 | 0.00 | 6 | 1010.2 |
| 20260510104516 | 69 | 221 | 0.0 | 0.0 | 0.00 | 0.00 | 0.00 | 8 | 1010.0 |
| 20260510103015 | 69 | 217 | 0.0 | 2.0 | 0.00 | 0.00 | 0.00 | 10 | 1010.1 |
| 20260510101513 | 69 | 210 | 0.0 | 5.0 | 0.00 | 0.00 | 0.00 | 12 | 1010.1 |
| 20260510100011 | 70 | 217 | 0.0 | 4.0 | 0.00 | 0.00 | 0.00 | 15 | 1009.9 |
| 20260510094510 | 70 | 205 | 0.0 | 3.0 | 0.00 | 0.00 | 0.00 | 19 | 1009.9 |
| 20260510093007 | 70 | 211 | 0.0 | 2.0 | 0.00 | 0.00 | 0.00 | 22 | 1010.0 |
| 20260510091505 | 71 | 219 | 0.0 | 5.0 | 0.00 | 0.00 | 0.00 | 28 | 1009.9 |
| 20260510090002 | 71 | 183 | 0.0 | 0.0 | 0.00 | 0.00 | 0.00 | 35 | 1010.0 |
| 20260510084615 | 71 | 183 | 0.0 | 0.0 | 0.00 | 0.00 | 0.00 | 36 | 1010.0 |
| 20260510083059 | 71 | 183 | 0.0 | 0.0 | 0.00 | 0.00 | 0.00 | 38 | 1009.9 |
| 20260510081604 | 72 | 183 | 0.0 | 0.0 | 0.00 | 0.00 | 0.00 | 41 | 1010.2 |
| 20260510074556 | 72 | 182 | 0.0 | 0.0 | 0.00 | 0.00 | 0.00 | 46 | 1010.0 |
| 20260510073055 | 72 | 163 | 0.0 | 0.0 | 0.00 | 0.00 | 0.00 | 53 | 1010.2 |
| 20260510071550 | 72 | 163 | 0.0 | 0.0 | 0.00 | 0.00 | 0.00 | 56 | 1010.3 |
| 20260510070051 | 73 | 165 | 0.0 | 0.0 | 0.00 | 0.00 | 0.00 | 56 | 1010.2 |
| 20260510064547 | 73 | 165 | 0.0 | 0.0 | 0.00 | 0.00 | 0.00 | 58 | 1010.0 |
| 20260510063043 | 73 | 179 | 0.0 | 0.0 | 0.00 | 0.00 | 0.00 | 60 | 1010.1 |
| 20260510061541 | 74 | 179 | 0.0 | 0.0 | 0.00 | 0.00 | 0.00 | 62 | 1010.0 |
| 20260510060045 | 74 | 178 | 0.0 | 1.0 | 0.00 | 0.00 | 0.00 | 63 | 1009.9 |
| 20260510054538 | 74 | 186 | 0.0 | 0.0 | 0.00 | 0.00 | 0.00 | 63 | 1009.9 |
| 20260510053037 | 75 | 186 | 0.0 | 0.0 | 0.00 | 0.00 | 0.00 | 63 | 1009.9 |
| 20260510051534 | 75 | 186 | 0.0 | 0.0 | 0.00 | 0.00 | 0.00 | 63 | 1009.9 |
| 20260510050037 | 76 | 186 | 0.0 | 0.0 | 0.00 | 0.00 | 0.00 | 64 | 1009.8 |
| 20260510044526 | 76 | 186 | 0.0 | 0.0 | 0.00 | 0.00 | 0.00 | 64 | 1009.8 |
| 20260510043023 | 76 | 186 | 0.0 | 3.0 | 0.00 | 0.00 | 0.00 | 64 | 1009.7 |
| 20260510041522 | 77 | 188 | 0.0 | 0.0 | 0.00 | 0.00 | 0.00 | 64 | 1009.5 |
| 20260510040014 | 78 | 188 | 0.0 | 0.0 | 0.00 | 0.00 | 0.00 | 65 | 1009.4 |
| 20260510034509 | 78 | 188 | 0.0 | 0.0 | 0.00 | 0.00 | 0.00 | 66 | 1009.3 |
| 20260510033004 | 79 | 188 | 0.0 | 0.0 | 0.00 | 0.00 | 0.00 | 66 | 1009.2 |
| 20260510031605 | 79 | 188 | 0.0 | 0.0 | 0.00 | 0.00 | 0.00 | 65 | 1009.1 |
| 20260510030156 | 79 | 188 | 0.0 | 0.0 | 0.00 | 0.00 | 0.00 | 65 | 1008.8 |
| 20260510024551 | 80 | 188 | 1.0 | 6.0 | 0.00 | 0.00 | 0.00 | 65 | 1008.5 |
| 20260510023047 | 81 | 182 | 0.0 | 4.0 | 0.00 | 0.00 | 0.00 | 66 | 1008.4 |
| 20260510021635 | 81 | 182 | 1.0 | 4.0 | 0.00 | 0.00 | 0.00 | 66 | 1008.4 |
| 20260510020037 | 82 | 159 | 0.0 | 3.0 | 0.00 | 0.00 | 0.00 | 67 | 1008.2 |
| 20260510014546 | 82 | 190 | 0.0 | 4.0 | 0.00 | 0.00 | 0.00 | 67 | 1008.0 |
| 20260510013032 | 83 | 197 | 0.0 | 7.0 | 0.00 | 0.00 | 0.00 | 67 | 1007.9 |
| 20260510011525 | 83 | 126 | 0.0 | 1.0 | 0.00 | 0.00 | 0.00 | 66 | 1007.6 |
| 20260510010032 | 84 | 122 | 0.0 | 0.0 | 0.00 | 0.00 | 0.00 | 65 | 1007.6 |
| 20260510004522 | 84 | 120 | 0.0 | 2.0 | 0.00 | 0.00 | 0.00 | 65 | 1007.6 |
| 20260510003023 | 84 | 98 | 0.0 | 4.0 | 0.00 | 0.00 | 0.00 | 64 | 1007.4 |
| 20260510001519 | 85 | 179 | 0.0 | 4.0 | 0.00 | 0.00 | 0.00 | 63 | 1007.3 |
| 20260510000018 | 85 | 178 | 3.0 | 8.0 | 0.00 | 0.00 | 0.00 | 62 | 1007.2 |
| 20260509234521 | 86 | 185 | 1.0 | 5.0 | 0.00 | 0.00 | 0.00 | 61 | 1007.0 |
| 20260509233018 | 86 | 164 | 0.0 | 3.0 | 0.00 | 0.00 | 0.00 | 61 | 1007.0 |
| 20260509231518 | 86 | 169 | 2.0 | 4.0 | 0.00 | 0.00 | 0.00 | 60 | 1007.0 |
| 20260509230025 | 86 | 109 | 1.0 | 8.0 | 0.00 | 0.00 | 0.00 | 57 | 1007.0 |
| 20260509224517 | 87 | 115 | 0.0 | 4.0 | 0.00 | 0.00 | 0.00 | 53 | 1006.9 |
| 20260509223009 | 87 | 180 | 2.0 | 9.0 | 0.00 | 0.00 | 0.00 | 44 | 1006.9 |
| 20260509221505 | 87 | 110 | 1.0 | 4.0 | 0.00 | 0.00 | 0.00 | 47 | 1006.8 |
| 20260509220100 | 86 | 216 | 0.0 | 2.0 | 0.00 | 0.00 | 0.00 | 50 | 1006.5 |
| 20260509214556 | 85 | 171 | 1.0 | 4.0 | 0.00 | 0.00 | 0.00 | 52 | 1006.8 |
| 20260509213105 | 83 | 198 | 1.0 | 8.0 | 0.00 | 0.00 | 0.00 | 55 | 1006.9 |
| 20260509211549 | 81 | 169 | 4.0 | 11.0 | 0.00 | 0.00 | 0.00 | 55 | 1007.6 |
| 20260509210046 | 78 | 217 | 5.0 | 17.0 | 0.00 | 0.00 | 0.00 | 55 | 1007.7 |
| 20260509204539 | 78 | 185 | 11.0 | 22.0 | 0.00 | 0.00 | 0.00 | 58 | 1007.7 |
| 20260509203034 | 83 | 56 | 4.0 | 16.0 | 0.00 | 0.00 | 0.00 | 52 | 1007.9 |
| 20260509201528 | 89 | 103 | 5.0 | 14.0 | 0.00 | 0.00 | 0.00 | 58 | 1008.0 |
| 20260509200024 | 91 | 40 | 0.0 | 5.0 | 0.00 | 0.00 | 0.00 | 52 | 1007.9 |
| 20260509194531 | 90 | 265 | 1.0 | 4.0 | 0.00 | 0.00 | 0.00 | 53 | 1007.9 |
| 20260509193022 | 90 | 208 | 0.0 | 3.0 | 0.00 | 0.00 | 0.00 | 54 | 1008.0 |
| 20260509191514 | 90 | 240 | 0.0 | 4.0 | 0.00 | 0.00 | 0.00 | 56 | 1008.2 |
| 20260509190008 | 89 | 219 | 0.0 | 5.0 | 0.00 | 0.00 | 0.00 | 57 | 1008.4 |